Change the Weather History Date:

Thursday, August 30, 2012

  Actual Average Record
Temperature  
Mean Temperature 76 °F -  
Max Temperature 90 °F 94 °F 110 °F (2011)
Min Temperature 61 °F 65 °F 55 °F (1915)
Cooling Degree Days 10    
Growing Degree Days 26 (Base 50)    
Moisture  
Dew Point 45 °F    
Average Humidity 37    
Maximum Humidity 65    
Minimum Humidity 16    
Precipitation  
Precipitation 0.00 in - - ()
Sea Level Pressure  
Sea Level Pressure 29.97 in    
Wind  
Wind Speed 4 mph (North)    
Max Wind Speed 8 mph    
Max Gust Speed -    
Visibility 10 miles    
Events      
Averages and records for this station are not official NWS values.
T = Trace of Precipitation, MM = Missing Value Source: NWS Daily Summary

Daily Weather History Graph

Daily Weather History Graph

Search for Another Location

Airport or City:

Trip Planner

Search our weather history database for the weather conditions in past years. The results will help you decide how hot, cold, wet, or windy it might be!

Date:

Astronomy

Aug. 30, 2012 Rise Set
Actual Time 7:29 AM CDT 8:19 PM CDT
Civil Twilight 7:04 AM CDT 8:44 PM CDT
Nautical Twilight 6:34 AM CDT 9:13 PM CDT
Astronomical Twilight 6:04 AM CDT 9:43 PM CDT
Moon 7:37 PM CDT (8/30) 6:32 AM CDT (8/30)
Length of Visible Light 13h 39m
Length of Day
12h 50m
Waxing Gibbous, 99% of the Moon is Illuminated
Aug 30
Waxing Gibbous
Aug 31
Full
Sep 8
Last Quarter
Sep 15
New
Sep 22
First Quarter

Hourly Weather History & Observations

Time (CDT) Temp. Dew Point Humidity Pressure Visibility Wind Dir Wind Speed Gust Speed Precip Events Conditions
12:15 AM 72.5 °F 52.0 °F 48% 29.98 in 10.0 mi NE 4.6 mph - N/A   Clear
12:35 AM 72.5 °F 50.9 °F 47% 29.99 in 10.0 mi NE 3.5 mph - N/A   Clear
1:15 AM 70.2 °F 50.9 °F 50% 29.99 in 10.0 mi NE 4.6 mph - N/A   Clear
1:35 AM 70.0 °F 49.8 °F 49% 29.99 in 10.0 mi NE 6.9 mph - N/A   Clear
1:55 AM 68.9 °F 49.8 °F 51% 29.99 in 10.0 mi NE 5.8 mph - N/A   Clear
2:15 AM 69.1 °F 49.5 °F 50% 29.98 in 10.0 mi NE 4.6 mph - N/A   Clear
2:35 AM 68.5 °F 50.0 °F 52% 29.98 in 10.0 mi ENE 3.5 mph - N/A   Clear
2:55 AM 68.4 °F 49.8 °F 51% 29.98 in 10.0 mi Calm Calm - N/A   Clear
3:35 AM 66.4 °F 52.3 °F 61% 29.98 in 10.0 mi Calm Calm - N/A   Clear
3:55 AM 64.9 °F 52.9 °F 65% 29.98 in 10.0 mi North 3.5 mph - N/A   Clear
4:15 AM 64.4 °F 52.2 °F 64% 29.98 in 10.0 mi NNW 3.5 mph - N/A   Clear
4:35 AM 64.4 °F 51.1 °F 62% 29.98 in 10.0 mi North 5.8 mph - N/A   Clear
4:55 AM 63.9 °F 50.9 °F 63% 29.98 in 10.0 mi NNW 3.5 mph - N/A   Clear
5:15 AM 63.7 °F 50.0 °F 61% 29.98 in 10.0 mi North 3.5 mph - N/A   Clear
5:35 AM 62.6 °F 50.2 °F 64% 29.97 in 10.0 mi NNW 3.5 mph - N/A   Clear
5:55 AM 62.2 °F 50.2 °F 65% 29.97 in 10.0 mi NW 5.8 mph - N/A   Clear
6:15 AM 61.3 °F 49.5 °F 65% 29.98 in 10.0 mi NNW 6.9 mph - N/A   Clear
6:35 AM 61.7 °F 48.7 °F 62% 29.98 in 10.0 mi NNW 5.8 mph - N/A   Clear
6:55 AM 61.3 °F 48.4 °F 62% 29.99 in 10.0 mi NNW 5.8 mph - N/A   Clear
7:15 AM 61.7 °F 47.8 °F 60% 30.00 in 10.0 mi North 4.6 mph - N/A   Clear
7:35 AM 63.0 °F 46.6 °F 55% 30.00 in 10.0 mi North 4.6 mph - N/A   Clear
7:55 AM 62.1 °F 47.5 °F 59% 30.01 in 10.0 mi NNW 5.8 mph - N/A   Clear
8:15 AM 62.6 °F 47.1 °F 57% 30.02 in 10.0 mi NW 3.5 mph - N/A   Clear
8:35 AM 63.1 °F 47.5 °F 57% 30.03 in 10.0 mi NNW 3.5 mph - N/A   Clear
9:15 AM 68.4 °F 46.8 °F 46% 30.03 in 10.0 mi North 6.9 mph - N/A   Clear
9:35 AM 71.1 °F 46.0 °F 41% 30.04 in 10.0 mi NNW 4.6 mph - N/A   Clear
9:55 AM 72.5 °F 44.4 °F 36% 30.04 in 10.0 mi NNE 5.8 mph - N/A   Clear
10:15 AM 73.9 °F 44.8 °F 35% 30.03 in 10.0 mi NNE 3.5 mph - N/A   Clear
10:35 AM 75.4 °F 44.2 °F 33% 30.03 in 10.0 mi Calm Calm - N/A   Clear
10:55 AM 77.7 °F 44.2 °F 30% 30.04 in 10.0 mi Calm Calm - N/A   Clear
11:15 AM 77.9 °F 44.6 °F 31% 30.04 in 10.0 mi Calm Calm - N/A   Clear
11:35 AM 78.8 °F 44.8 °F 30% 30.04 in 10.0 mi Calm Calm - N/A   Clear
11:55 AM 80.1 °F 45.5 °F 30% 30.03 in 10.0 mi Calm Calm - N/A   Clear
12:15 PM 81.3 °F 43.5 °F 26% 30.03 in 10.0 mi Calm Calm - N/A   Clear
12:35 PM 82.9 °F 43.7 °F 25% 30.02 in 10.0 mi Calm Calm - N/A   Clear
12:55 PM 84.0 °F 42.6 °F 23% 30.02 in 10.0 mi Calm Calm - N/A   Clear
1:15 PM 85.5 °F 42.8 °F 22% 30.00 in 10.0 mi NW 4.6 mph - N/A   Clear
1:35 PM 86.5 °F 38.8 °F 19% 30.00 in 10.0 mi NNW 4.6 mph - N/A   Clear
1:55 PM 87.1 °F 38.5 °F 18% 29.99 in 10.0 mi North 5.8 mph - N/A   Clear
2:15 PM 88.3 °F 41.2 °F 19% 29.99 in 10.0 mi ESE 4.6 mph - N/A   Clear
2:35 PM 87.8 °F 39.0 °F 18% 29.98 in 10.0 mi NNE 3.5 mph - N/A   Clear
2:55 PM 87.6 °F 39.7 °F 19% 29.97 in 10.0 mi Calm Calm - N/A   Clear
3:15 PM 87.8 °F 39.7 °F 18% 29.96 in 10.0 mi North 3.5 mph - N/A   Clear
3:35 PM 88.5 °F 39.6 °F 18% 29.95 in 10.0 mi ENE 6.9 mph - N/A   Clear
3:55 PM 89.1 °F 39.0 °F 17% 29.95 in 10.0 mi Calm Calm - N/A   Clear
4:15 PM 87.4 °F 38.8 °F 18% 29.93 in 10.0 mi ENE 6.9 mph - N/A   Clear
4:35 PM 88.9 °F 39.9 °F 18% 29.93 in 10.0 mi NNE 5.8 mph - N/A   Clear
4:55 PM 90.1 °F 39.0 °F 17% 29.92 in 10.0 mi ENE 8.1 mph - N/A   Clear
5:15 PM 89.8 °F 38.7 °F 17% 29.92 in 10.0 mi ENE 4.6 mph - N/A   Clear
5:35 PM 88.9 °F 38.3 °F 17% 29.91 in 10.0 mi Calm Calm - N/A   Clear
5:55 PM 89.2 °F 38.5 °F 17% 29.91 in 10.0 mi ESE 3.5 mph - N/A   Clear
6:15 PM 89.4 °F 39.2 °F 17% 29.91 in 10.0 mi ESE 4.6 mph - N/A   Clear
6:35 PM 90.0 °F 38.8 °F 17% 29.91 in 10.0 mi Calm Calm - N/A   Clear
6:55 PM 89.6 °F 37.6 °F 16% 29.90 in 10.0 mi Calm Calm - N/A   Clear
7:15 PM 89.2 °F 37.6 °F 16% 29.89 in 10.0 mi Calm Calm - N/A   Clear
7:35 PM 88.9 °F 38.3 °F 17% 29.89 in 10.0 mi Calm Calm - N/A   Clear
7:55 PM 87.8 °F 38.5 °F 18% 29.89 in 10.0 mi Calm Calm - N/A   Clear
8:15 PM 86.2 °F 41.4 °F 21% 29.89 in 10.0 mi Calm Calm - N/A   Clear
8:35 PM 83.8 °F 43.2 °F 24% 29.90 in 10.0 mi South 3.5 mph - N/A   Clear
8:55 PM 81.3 °F 44.6 °F 27% 29.90 in 10.0 mi South 3.5 mph - N/A   Clear
9:15 PM 81.3 °F 43.9 °F 27% 29.91 in 10.0 mi South 3.5 mph - N/A   Clear
9:35 PM 78.3 °F 45.7 °F 32% 29.92 in 10.0 mi South 4.6 mph - N/A   Clear
9:55 PM 77.2 °F 45.7 °F 33% 29.93 in 10.0 mi SSW 4.6 mph - N/A   Clear
10:15 PM 75.2 °F 48.6 °F 39% 29.93 in 10.0 mi SW 4.6 mph - N/A   Clear
10:35 PM 74.5 °F 49.3 °F 41% 29.95 in 10.0 mi SW 4.6 mph - N/A   Clear
10:55 PM 72.3 °F 50.2 °F 46% 29.95 in 10.0 mi WSW 5.8 mph - N/A   Clear
11:15 PM 71.6 °F 48.0 °F 43% 29.95 in 10.0 mi WSW 6.9 mph - N/A   Clear
11:35 PM 71.2 °F 47.3 °F 42% 29.96 in 10.0 mi WSW 4.6 mph - N/A   Clear
11:55 PM 69.6 °F 47.1 °F 45% 29.96 in 10.0 mi South 6.9 mph - N/A   Clear